Location: ?kun?ru
(16.3916°N, 80.8194°E)
Time: 14:46:29
(UTC+00:00)

Aureole 1 Rocket - Pass Details

Date: 19 May 2025
Orbit: 373 x 1192 km, 73.9° (Epoch: 17 June)

Event Time Altitude Azimuth Distance (km) Brightness Sun altitude
Rises 14:47:22 0° 340° (NNW) 3,456 7.7 -23.7°
Reaches altitude 10° 14:49:40 10° 337° (NNW) 2,627 7.0 -24.2°
Maximum altitude 14:55:49 63° 258° (WSW) 1,171 4.5 -25.4°
Enters shadow 14:59:52 27° 186° (S) 2,004 5.4 -26.3°
